Weather History for Waterloo Wellington, ON

Change the Weather History Date:

Friday, November 16, 2012

  Actual Average Record
Temperature  
Mean Temperature 34 °F -  
Max Temperature 48 °F 36 °F 64 °F (2005)
Min Temperature 21 °F 25 °F 15 °F (1997)
Degree Days  
Heating Degree Days 30    
Moisture  
Dew Point 28 °F    
Average Humidity 89    
Maximum Humidity 100    
Minimum Humidity 54    
Precipitation  
Precipitation 0.00 in 0.11 in - ()
Sea Level Pressure  
Sea Level Pressure 30.44 in    
Wind  
Wind Speed 2 mph ()    
Max Wind Speed 8 mph    
Max Gust Speed -    
Visibility 5.1 miles    
Events      
Averages and records for this station are not official NWS values.
T = Trace of Precipitation, MM = Missing Value Source: Averaged Metar Reports

Daily Weather History Graph

Daily Weather History Graph

Search for Another Location

Airport:

Trip Planner

Search our weather history database for the weather conditions in past years. The results will help you decide how hot, cold, wet, or windy it might be!

Date:

Astronomy

Nov. 16, 2012 Rise Set
Actual Time 7:17 AM EST 4:55 PM EST
Civil Twilight 6:46 AM EST 5:26 PM EST
Nautical Twilight 6:11 AM EST 6:01 PM EST
Astronomical Twilight 5:37 AM EST 6:34 PM EST
Moon 10:11 AM EST (11/16) 7:52 PM EST (11/16)
Length of Visible Light 10h 40m
Length of Day
9h 38m
Waxing Crescent, 11% of the Moon is Illuminated
Nov 16
Waxing Crescent
Nov 20
First Quarter
Nov 28
Full
Dec 6
Last Quarter
Dec 13
New

Hourly Weather History & Observations

Time (EST) Temp. Windchill Dew Point Humidity Pressure Visibility Wind Dir Wind Speed Gust Speed Precip Events Conditions
12:00 AM 24.8 °F 19.1 °F 24.8 °F 100% 30.38 in 9.0 mi NW 4.6 mph - N/A   Clear
1:00 AM 25 °F - 24 °F 95% 30.38 in 7 mi NW 2.3 mph - -  
1:00 AM 24.8 °F - 24.8 °F 100% 30.37 in 8.0 mi NNW 2.3 mph - N/A   Clear
1:48 AM 24.8 °F - 23.0 °F 93% 30.38 in 5.0 mi North 2.3 mph - N/A   Clear
2:00 AM 24.8 °F - 23.0 °F 93% 30.38 in 5.0 mi North 2.3 mph - N/A   Clear
2:27 AM 23.0 °F - 21.2 °F 93% 30.39 in 6.0 mi NNE 2.3 mph - N/A   Clear
3:00 AM 24.8 °F - 24.8 °F 100% 30.39 in 6.0 mi Calm Calm - N/A   Clear
3:02 AM 24.8 °F - 23.0 °F 93% 30.39 in 5.0 mi Calm Calm - N/A   Clear
3:27 AM 23.0 °F - 23.0 °F 100% 30.40 in 2.5 mi Calm Calm - N/A   Clear
3:45 AM 23.0 °F - 23.0 °F 100% 30.40 in 1.5 mi Calm Calm - N/A   Clear
4:00 AM 23.0 °F - 23.0 °F 100% 30.39 in 1.8 mi NW 2.3 mph - N/A   Clear
4:01 AM 23.0 °F - 23.0 °F 100% 30.39 in 2.0 mi NW 2.3 mph - N/A   Clear
4:04 AM 23.0 °F - 23.0 °F 100% 30.39 in 3.0 mi NW 2.3 mph - N/A   Clear
5:00 AM 21.2 °F - 21.2 °F 100% 30.40 in 3.0 mi Calm Calm - N/A   Clear
5:08 AM 23.0 °F - 21.2 °F 93% 30.40 in 2.2 mi Calm Calm - N/A   Clear
5:13 AM 23.0 °F - 21.2 °F 93% 30.40 in 3.0 mi Calm Calm - N/A   Clear
5:32 AM 23.0 °F - 23.0 °F 100% 30.40 in 2.2 mi Calm Calm - N/A   Clear
5:36 AM 23.0 °F - 21.2 °F 93% 30.40 in 1.8 mi Variable 2.3 mph - N/A   Clear
5:40 AM 21.2 °F - 21.2 °F 100% 30.40 in 2.0 mi Calm Calm - N/A   Clear
5:46 AM 21.2 °F - 21.2 °F 100% 30.40 in 3.0 mi Calm Calm - N/A   Clear
6:00 AM 23.0 °F - 21.2 °F 93% 30.41 in 4.0 mi Calm Calm - N/A   Clear
6:20 AM 23.0 °F - 21.2 °F 93% 30.41 in 6.0 mi Calm Calm - N/A   Clear
6:31 AM 23.0 °F - 21.2 °F 93% 30.41 in 5.0 mi NNW 2.3 mph - N/A   Clear
7:00 AM 24 °F - 23 °F 94% 30.42 in 5 mi NW 2.3 mph - -   Mist
7:00 AM 23.0 °F - 23.0 °F 100% 30.42 in 5.0 mi Calm Calm - N/A   Clear
7:46 AM 23.0 °F - 21.2 °F 93% 30.44 in 7.0 mi Calm Calm - N/A   Clear
8:00 AM 23.0 °F - 23.0 °F 100% 30.45 in 8.0 mi North 2.3 mph - N/A   Clear
9:00 AM 30.2 °F - 28.4 °F 93% 30.46 in 6.0 mi Calm Calm - N/A   Clear
10:00 AM 35.6 °F 31.7 °F 32.0 °F 87% 30.46 in 6.0 mi West 4.6 mph - N/A   Clear
11:00 AM 41.0 °F - 33.8 °F 76% 30.45 in 7.0 mi Variable 2.3 mph - N/A   Clear
12:00 PM 44.6 °F 43.1 °F 35.6 °F 71% 30.44 in 7.0 mi Variable 3.5 mph - N/A   Clear
1:00 PM 46 °F - 35 °F 54% 30.44 in 7 mi West 3.5 mph - -  
1:00 PM 46.4 °F 44.3 °F 35.6 °F 66% 30.44 in 7.0 mi West 4.6 mph - N/A   Clear
2:00 PM 48.2 °F - 35.6 °F 62% 30.45 in 8.0 mi WNW 8.1 mph - N/A   Clear
3:00 PM 48.2 °F - 37.4 °F 66% 30.45 in 8.0 mi WNW 8.1 mph - N/A   Clear
4:00 PM 46.4 °F 42.9 °F 37.4 °F 71% 30.47 in 7.0 mi WNW 6.9 mph - N/A   Clear
5:00 PM 42.8 °F 38.6 °F 35.6 °F 76% 30.48 in 6.0 mi NW 6.9 mph - N/A   Haze
6:49 PM 42.8 °F 40.1 °F 35.6 °F 76% 30.51 in 6.0 mi NNW 4.6 mph - N/A   Haze
7:00 PM 42 °F - 36 °F 71% 30.51 in 6 mi NNW 5.8 mph - -   Light Haze
7:00 PM 42.8 °F 38.6 °F 35.6 °F 76% 30.51 in 6.0 mi NNW 6.9 mph - N/A   Haze
7:32 PM 41.0 °F 39.0 °F 35.6 °F 81% 30.51 in 6.0 mi North 3.5 mph - N/A   Haze
8:00 PM 41.0 °F 39.0 °F 35.6 °F 81% 30.52 in 6.0 mi NNE 3.5 mph - N/A   Haze
9:00 PM 41.0 °F 39.0 °F 35.6 °F 81% 30.52 in 6.0 mi NW 3.5 mph - N/A   Haze
10:00 PM 41.0 °F - 35.6 °F 81% 30.52 in 6.0 mi Calm Calm - N/A   Haze
10:16 PM 39.2 °F - 35.6 °F 87% 30.52 in 5.0 mi Calm Calm - N/A   Haze
11:00 PM 35.6 °F - 33.8 °F 93% 30.52 in 4.0 mi WNW 2.3 mph - N/A   Scattered Clouds
11:14 PM 33.8 °F - 33.8 °F 100% 30.52 in 2.5 mi NW 2.3 mph - N/A   Partly Cloudy
11:29 PM 33.8 °F - 32.0 °F 93% 30.52 in 3.0 mi Variable 2.3 mph - N/A   Partly Cloudy